Eagle, AK

3:17 AM AKST on February 11, 2016 (GMT -0900)
Eagle

Weather History for PAEG - January, 2013

Change the Weather History Date:

Wednesday, January 30, 2013

  Actual Average (PABN) Record (PABN)
Temperature  
Mean Temperature -3 °F -  
Max Temperature 3 °F 5 °F 39 °F (1997)
Min Temperature -9 °F 0 °F -34 °F (2004)
Degree Days  
Heating Degree Days 68    
Moisture  
Dew Point -16 °F    
Average Humidity 54    
Maximum Humidity 59    
Minimum Humidity 51    
Precipitation  
Precipitation 0.00 in - - ()
Sea Level Pressure  
Sea Level Pressure 30.11 in    
Wind  
Wind Speed 9 mph (SE)    
Max Wind Speed 14 mph    
Max Gust Speed 31 mph    
Visibility 9 miles    
Events Snow    
Averages and records for this station are not official NWS values.
T = Trace of Precipitation, MM = Missing Value Source: NWS Daily Summary

Daily Weather History Graph

Daily Weather History Graph

Search for Another Location

Airport or City:

Trip Planner

Search our weather history database for the weather conditions in past years. The results will help you decide how hot, cold, wet, or windy it might be!

Date:

Astronomy

Jan. 30, 2013 Rise Set
Actual Time 9:14 AM AKST 4:02 PM AKST
Civil Twilight 8:15 AM AKST 5:01 PM AKST
Nautical Twilight 7:14 AM AKST 6:02 PM AKST
Astronomical Twilight 6:17 AM AKST 7:00 PM AKST
Moon 10:10 PM AKST (1/30) 8:59 AM AKST (1/30)
Length of Visible Light 8h 46m
Length of Day
6h 47m
Waning Gibbous, 86% of the Moon is Illuminated
Jan 30
Waning Gibbous
Feb 3
Last Quarter
Feb 9
New
Feb 17
First Quarter
Feb 25
Full

Hourly Weather History & Observations

Time (AKST) Temp. Windchill Dew Point Humidity Pressure Visibility Wind Dir Wind Speed Gust Speed Precip Events Conditions
12:53 AM -9.9 °F -28.6 °F -23.1 °F 52% 30.18 in 10.0 mi SE 10.4 mph 18.4 mph N/A   Mostly Cloudy
1:30 AM -9.4 °F -28.9 °F -20.2 °F 59% 30.08 in 2.5 mi SE 11.5 mph 19.6 mph 0.00 in Snow Light Snow
1:53 AM -9.0 °F -27.4 °F -20.0 °F 59% 30.18 in 2.0 mi ESE 10.4 mph 21.9 mph 0.00 in Snow Light Snow
2:12 AM -9.4 °F -25.6 °F -20.2 °F 59% 30.08 in 4.0 mi ESE 8.1 mph - 0.00 in Snow Light Snow
3:53 AM -8.0 °F -26.1 °F -20.9 °F 53% 30.19 in 10.0 mi SE 10.4 mph 18.4 mph N/A   Overcast
4:53 AM -7.1 °F -23.9 °F -20.0 °F 53% 30.18 in 10.0 mi SE 9.2 mph 17.3 mph N/A   Overcast
5:53 AM -6.0 °F -14.7 °F -18.9 °F 54% 30.19 in 5.0 mi SE 3.5 mph 16.1 mph 0.00 in Snow Light Snow
6:53 AM -5.1 °F -21.5 °F -18.9 °F 51% 30.18 in 10.0 mi SE 9.2 mph - 0.00 in   Overcast
7:53 AM -5.1 °F -21.5 °F -18.0 °F 54% 30.17 in 10.0 mi SE 9.2 mph - N/A   Overcast
8:53 AM -5.1 °F -19.1 °F -18.9 °F 51% 30.18 in 10.0 mi Variable 6.9 mph - N/A   Clear
9:23 AM -5.8 °F -18.4 °F -18.4 °F 55% 30.08 in 2.0 mi Variable 5.8 mph - N/A   Haze
9:32 AM -5.8 °F -18.4 °F -18.4 °F 55% 30.08 in 10.0 mi Variable 5.8 mph - N/A   Clear
9:53 AM -5.1 °F -20.4 °F -18.9 °F 51% 30.18 in 10.0 mi SSE 8.1 mph - N/A   Clear
10:53 AM -2.9 °F -19.8 °F -17.0 °F 51% 30.17 in 10.0 mi SE 10.4 mph - N/A   Scattered Clouds
11:53 AM -2.9 °F -17.7 °F -17.0 °F 51% 30.15 in 10.0 mi SE 8.1 mph 18.4 mph N/A   Mostly Cloudy
12:53 PM -2.0 °F -18.7 °F -16.1 °F 51% 30.15 in 10.0 mi ESE 10.4 mph 17.3 mph N/A   Overcast
1:53 PM -0.9 °F -12.7 °F -15.0 °F 52% 30.13 in 10.0 mi Variable 5.8 mph 16.1 mph N/A   Overcast
2:53 PM -0.0 °F -15.3 °F -14.1 °F 52% 30.12 in 10.0 mi SSE 9.2 mph 21.9 mph N/A   Overcast
3:53 PM -0.0 °F -16.3 °F -14.1 °F 52% 30.11 in 10.0 mi SE 10.4 mph 20.7 mph N/A   Overcast
4:53 PM 1.0 °F -14.9 °F -13.0 °F 52% 30.09 in 10.0 mi ESE 10.4 mph 18.4 mph N/A   Overcast
5:53 PM 1.0 °F -10.3 °F -13.0 °F 52% 30.07 in 10.0 mi Variable 5.8 mph - N/A   Partly Cloudy
6:53 PM 1.0 °F -12.9 °F -11.9 °F 55% 30.06 in 10.0 mi East 8.1 mph - N/A   Clear
7:53 PM 1.9 °F -11.8 °F -11.9 °F 52% 30.04 in 10.0 mi SE 8.1 mph 20.7 mph N/A   Partly Cloudy
8:53 PM 3.0 °F -11.5 °F -9.9 °F 55% 30.02 in 10.0 mi SE 9.2 mph 18.4 mph N/A   Overcast
9:53 PM 3.0 °F -10.5 °F -9.9 °F 55% 29.99 in 10.0 mi SE 8.1 mph 19.6 mph N/A   Overcast
10:53 PM 3.9 °F -12.2 °F -9.0 °F 55% 29.98 in 10.0 mi SE 11.5 mph 25.3 mph N/A   Overcast
11:53 PM 3.9 °F -13.7 °F -8.0 °F 58% 29.97 in 10.0 mi SE 13.8 mph 31.1 mph N/A   Overcast